Regional Weather Roundup
Issued by NWS Sterling, VA

Home | Current Version | Previous Version | Graphics & Text | Print | Product List | Glossary On
Versions: 1 2 3 4 5 6 7 8 9 10 11 12 13 14 15 16 17 18 19 20 21 22 23 24 25 26 27 28 29 30 31 32 33 34 35 36 37 38 39 40 41 42 43 44 45 46 47 48 49 50
000
ASUS41 KLWX 240511
RWRLWX

REGIONAL WEATHER ROUNDUP
NATIONAL WEATHER SERVICE BALTIMORE MD/WASHINGTON DC
100 AM EDT SUN JUL 24 2016

Note: "FAIR" indicates few or no clouds below 12,000 feet
with no significant weather and/or obstructions to visibility.
 TC=TEMPERATURE CELSIUS

 * =Non NWS site. Station does not report precipitation (e.g. rain,
    snow, etc.), thunder, or fog.

DCZ001-MDZ009-015-VAZ040>042-051-053>054-240600-
WASHINGTON METRO

CITY           SKY/WX    TMP DP  RH WIND       PRES   REMARKS
WASHINGTON NAT MOCLDY    84  78  82 SW5       29.94R HX  95
DULLES         FAIR      76  73  91 SW3       29.96R
ANDREWS AFB    CLEAR     78  73  84 W3        29.93R
FT BELVOIR     FAIR      78  73  85 CALM      29.94R
QUANTICO       FAIR      83  76  79 NW10      29.94R HX  91
COLLEGE PARK*  FAIR      77  72  83 CALM      29.93R
LEESBURG*      FAIR      81  73  78 CALM      29.97R
MANASSAS*      FAIR      77  75  94 CALM      29.95S
GAITHERSBURG*  PTCLDY    73  70  88 CALM      29.99S

$$

MDZ006>007-011-014-240600-
BALTIMORE METRO

CITY           SKY/WX    TMP DP  RH WIND       PRES   REMARKS
BWI AIRPORT    PTCLDY    73  71  93 CALM      29.93R
MD SCIENCE CTR   N/A     82  70  66 MISG      29.93R
MARTIN STATE   CLEAR     79  73  83 W3        29.93S
ANNAPOLIS      CLEAR     79  77  94 NW3       29.91R
FORT MEADE*    CLEAR     72  70  94 CALM      29.95S

$$

MDZ012-015-019>023-240600-
MARYLAND EASTERN SHORE

CITY           SKY/WX    TMP DP  RH WIND       PRES   REMARKS
OCEAN CITY     PTCLDY    82  77  84 SW6       29.92S HX  90
SALISBURY      CLEAR     79  77  94 SW3       29.92S
BAY BRIDGE AP* CLEAR     81  77  89 SW5       29.92R
CAMBRIDGE*     CLEAR     79  75  89 CALM      29.92S
EASTON*        CLEAR     78  78 100 CALM      29.95S

$$

MDZ017>025-240600-
SOUTHERN MARYLAND

CITY           SKY/WX    TMP DP  RH WIND       PRES   REMARKS
PATUXENT RIVER CLOUDY    84  74  71 SW8       29.92S HX  91
ST INIGOES     CLOUDY    86  77  74 SW7       29.92S HX  97
LEONARDTOWN*   CLOUDY    82  73  74 SW5       29.95R

$$

MDZ003>005-240600-
NORTH CENTRAL MARYLAND

CITY           SKY/WX    TMP DP  RH WIND       PRES   REMARKS
FREDERICK*     PTCLDY    72  72 100 CALM      29.98R
HAGERSTOWN APT CLEAR     78  69  73 N3        29.98R

$$

MDZ501>502-240600-
WESTERN MARYLAND

CITY           SKY/WX    TMP DP  RH WIND       PRES   REMARKS
OAKLAND*       CLEAR     70  68  94 W5        30.15R
CUMBERLAND*    PTCLDY    77  72  83 CALM      30.05R

$$

VAZ025>031-240600-
SHENANDOAH VALLEY

CITY           SKY/WX    TMP DP  RH WIND       PRES   REMARKS
WINCHESTER*    FAIR      79  70  73 CALM      29.99S
FRONT ROYAL*   FAIR      75  72  88 S5        29.99R
LURAY*         FAIR      73  73 100 CALM      30.01S
NEW MARKET*    FAIR      72  69  90 CALM      30.00S
STAUNTON*      FAIR      72  70  93 CALM      30.05S
WAYNESBORO*    FAIR      76  70  81 SW5       30.05S

$$

WVZ021-048>050-054>055-240600-
EASTERN WEST VIRGINIA PANHANDLE

CITY           SKY/WX    TMP DP  RH WIND       PRES   REMARKS
MARTINSBURG    FAIR      79  69  71 CALM      29.96S
PETERSBURG*    FAIR      73  69  89 CALM      30.03R

$$

VAZ036>039-050-240600-
CENTRAL FOOTHILLS

CITY           SKY/WX    TMP DP  RH WIND       PRES   REMARKS
CHARLOTTESVILL FAIR      78  73  84 NW3       29.98R
CULPEPER*      FAIR      76  73  90 CALM      29.97S
ORANGE*          N/A     77  77 100 CALM      29.98S
GORDONSVILLE*  FAIR      76  74  95 CALM      29.97S
WARRENTON*     FAIR      77  71  81 CALM      29.95S

$$

VAZ055>057-240600-
NORTH AND CENTRAL PIEDMONT

CITY           SKY/WX    TMP DP  RH WIND       PRES   REMARKS
FREDERICKSBRG* FAIR      79  74  85 W3        29.93S
STAFFORD*      FAIR      78  72  80 CALM      29.99R

$$

NCZ024-NYZ072-PAZ021-071-VAZ022-071-240600-
OTHER REGIONAL OBSERVATIONS

CITY           SKY/WX    TMP DP  RH WIND       PRES   REMARKS
NEW YORK CITY  PTCLDY    81  57  43 CALM      29.94R
PHILADELPHIA   PTCLDY    79  70  74 NW5       29.93R
PITTSBURGH     PTCLDY    74  68  81 CALM      30.04R
ROANOKE        FAIR      80  69  69 CALM      30.04F
RICHMOND       MOCLDY    82  74  76 SW7       29.96R
RALEIGH        PTCLDY    78  72  81 W3        30.00R

$$

ANZ530>537-240600-
MARINE OBSERVATIONS

STATION/POSITION TIME  TEMP    WIND        PRES
                       AIR SEA DIR/SP/G
                 (UTC) (F)     (DEG/KT/KT) (MB)
THOMAS PT LIGHT  0500   83 83  270/  6/  7 1014.4R
BALT KEY BRIDGE  0442   81     260/  6/  8 1013.1R
COVE POINT       0442   86     270/  5/  6 1013.8S
LEWISETTA        0442   85 86  240/  9/ 10 1013.1R
SOLOMONS ISLAND  0442   85 85  260/  3/  5   N/A
PINEY POINT      0448          250/  5/  7   N/A

$$




USA.gov is the U.S. government's official web portal to all federal, state and local government web resources and services.